This is the latest recevied weather packets stored in our database for station/object IK2ILW-6. If no packets are shown the sender has not sent any weather packets the latest 1 day(s).
| Time | Temp. | Humidity | Pressure | Rain* | Wind** | Luminosity | Snow |
|---|---|---|---|---|---|---|---|
| 1778020894 | 3.33° C | 96% | 1012.3 hPa | 1.02 mm | 1.79 m/s, 130° | 0 W/m² | - |
| 1778020597 | 3.33° C | 96% | 1012.4 hPa | 2.03 mm | 0.45 m/s, 65° | 0 W/m² | - |
| 1778020283 | 3.33° C | 96% | 1012.5 hPa | 3.05 mm | 2.24 m/s, 143° | 0 W/m² | - |
| 1778019987 | 3.33° C | 96% | 1012.5 hPa | 4.06 mm | 0.89 m/s, 278° | 0 W/m² | - |
| 1778019692 | 3.33° C | 95% | 1012.6 hPa | 5.08 mm | 2.24 m/s, 79° | 0 W/m² | - |
| 1778019396 | 3.33° C | 96% | 1012.7 hPa | 6.1 mm | 2.68 m/s, 92° | 0 W/m² | - |
| 1778019100 | 3.33° C | 96% | 1012.7 hPa | 6.1 mm | 1.34 m/s, 67° | 0 W/m² | - |
| 1778018783 | 3.33° C | 96% | 1012.7 hPa | 7.11 mm | 0.89 m/s, 69° | 0 W/m² | - |
| 1778018493 | 2.78° C | 96% | 1012.7 hPa | 7.11 mm | 1.34 m/s, 46° | 0 W/m² | - |
| 1778018198 | 2.78° C | 96% | 1012.9 hPa | 7.87 mm | 0.45 m/s, 103° | 0 W/m² | - |
| 1778017883 | 2.78° C | 96% | 1012.9 hPa | 7.87 mm | 0.45 m/s, 140° | 0 W/m² | - |
| 1778017588 | 2.78° C | 96% | 1013 hPa | 8.89 mm | 1.79 m/s, 69° | 0 W/m² | - |
| 1778017292 | 2.78° C | 96% | 1013 hPa | 8.89 mm | 0.45 m/s, 109° | 0 W/m² | - |
| 1778016996 | 2.78° C | 96% | 1013 hPa | 7.87 mm | 0.89 m/s, 119° | 0 W/m² | - |
| 1778016700 | 2.78° C | 96% | 1013.2 hPa | 7.11 mm | 1.34 m/s, 85° | 0 W/m² | - |
| 1778016386 | 2.78° C | 96% | 1013.3 hPa | 6.1 mm | 2.24 m/s, 347° | 0 W/m² | - |
| 1778016091 | 3.33° C | 96% | 1013.4 hPa | 5.08 mm | 1.34 m/s, 60° | 0 W/m² | - |
| 1778015795 | 3.33° C | 96% | 1013.4 hPa | 4.06 mm | 0.89 m/s, 96° | 0 W/m² | - |
| 1778015499 | 3.33° C | 97% | 1013.4 hPa | 3.05 mm | 1.79 m/s, 138° | 0 W/m² | - |
| 1778015188 | 3.89° C | 96% | 1013.4 hPa | 2.03 mm | 0.45 m/s, 131° | 0 W/m² | - |
| 1778014893 | 3.89° C | 96% | 1013.4 hPa | 2.03 mm | 1.34 m/s, 131° | 0 W/m² | - |
| 1778014598 | 3.89° C | 96% | 1013.4 hPa | 1.02 mm | 1.79 m/s, 147° | 0 W/m² | - |
| 1778014302 | 3.89° C | 97% | 1013.3 hPa | 2.03 mm | 0.89 m/s, 135° | 0 W/m² | - |
| 1778013987 | 3.33° C | 97% | 1013.4 hPa | 1.02 mm | 1.34 m/s, 132° | 0 W/m² | - |
| 1778013692 | 3.33° C | 97% | 1013.4 hPa | 2.03 mm | 1.79 m/s, 89° | 0 W/m² | - |
* Rain latest hour (hover to see other rain measurements)
** Current wind speed in m/s (hover to see current wind gust speed)